TimeEST,TemperatureF,Dew PointF,Humidity,Sea Level PressureIn,VisibilityMPH,Wind Direction,Wind SpeedMPH,Gust SpeedMPH,PrecipitationIn,Events,Conditions,WindDirDegrees,DateUTC
1:53 AM,30.9,28.0,89,30.26,7.0,ESE,5.8,-,N/A,,Clear,110,2012-12-04 06:53:00
2:53 AM,30.9,28.9,92,30.26,6.0,SE,3.5,-,N/A,,Mostly Cloudy,130,2012-12-04 07:53:00
3:53 AM,35.1,32.0,89,30.25,6.0,Calm,Calm,-,N/A,,Overcast,0,2012-12-04 08:53:00
4:53 AM,37.0,35.1,93,30.25,6.0,Calm,Calm,-,N/A,,Overcast,0,2012-12-04 09:53:00
5:53 AM,39.0,36.0,89,30.25,6.0,Calm,Calm,-,N/A,,Overcast,0,2012-12-04 10:53:00
6:12 AM,39.2,35.6,87,30.26,6.0,Calm,Calm,-,N/A,,Overcast,0,2012-12-04 11:12:00
6:53 AM,39.9,37.0,89,30.25,7.0,Calm,Calm,-,N/A,,Overcast,0,2012-12-04 11:53:00
7:39 AM,41.0,37.4,87,30.25,6.0,Calm,Calm,-,N/A,,Overcast,0,2012-12-04 12:39:00
7:51 AM,41.0,37.4,87,30.25,6.0,Calm,Calm,-,N/A,,Overcast,0,2012-12-04 12:51:00
7:53 AM,41.0,37.9,89,30.25,6.0,Calm,Calm,-,N/A,,Overcast,0,2012-12-04 12:53:00
8:25 AM,42.8,39.2,87,30.25,6.0,Calm,Calm,-,N/A,,Overcast,0,2012-12-04 13:25:00
8:53 AM,43.0,39.0,86,30.25,6.0,Calm,Calm,-,N/A,,Overcast,0,2012-12-04 13:53:00
9:50 AM,44.6,41.0,87,30.25,6.0,Calm,Calm,-,N/A,,Overcast,0,2012-12-04 14:50:00
9:53 AM,45.0,41.0,86,30.25,5.0,Calm,Calm,-,N/A,,Overcast,0,2012-12-04 14:53:00
10:53 AM,46.9,44.1,90,30.23,6.0,Calm,Calm,-,N/A,,Overcast,0,2012-12-04 15:53:00
11:53 AM,52.0,46.0,80,30.19,8.0,Calm,Calm,-,N/A,,Overcast,0,2012-12-04 16:53:00
12:11 PM,53.6,48.2,82,30.19,8.0,Variable,5.8,-,N/A,,Overcast,0,2012-12-04 17:11:00
12:40 PM,53.6,46.4,77,30.18,9.0,Calm,Calm,-,N/A,,Overcast,0,2012-12-04 17:40:00
12:53 PM,53.1,46.9,80,30.17,8.0,WSW,3.5,-,N/A,,Overcast,240,2012-12-04 17:53:00
1:24 PM,53.6,48.2,82,30.15,6.0,Variable,5.8,-,N/A,,Haze,0,2012-12-04 18:24:00
1:35 PM,53.6,48.2,82,30.14,6.0,South,8.1,-,N/A,,Haze,170,2012-12-04 18:35:00
1:53 PM,55.0,48.9,80,30.13,6.0,SSE,9.2,-,N/A,,Haze,160,2012-12-04 18:53:00
2:15 PM,55.4,50.0,82,30.13,6.0,SSE,5.8,-,N/A,,Haze,160,2012-12-04 19:15:00
2:25 PM,55.4,50.0,82,30.13,6.0,South,4.6,-,N/A,,Haze,180,2012-12-04 19:25:00
2:32 PM,55.4,50.0,82,30.13,6.0,SW,3.5,-,N/A,,Haze,220,2012-12-04 19:32:00
2:53 PM,57.0,50.0,77,30.11,6.0,South,4.6,-,N/A,,Haze,170,2012-12-04 19:53:00
3:53 PM,57.0,51.1,81,30.10,4.0,SSE,3.5,-,N/A,,Haze,160,2012-12-04 20:53:00
4:53 PM,54.0,50.0,86,30.09,5.0,Calm,Calm,-,N/A,,Clear,0,2012-12-04 21:53:00
5:53 PM,46.9,44.1,90,30.07,2.5,Calm,Calm,-,N/A,,Clear,0,2012-12-04 22:53:00
5:55 PM,46.4,44.6,93,30.07,3.0,Calm,Calm,-,N/A,,Clear,0,2012-12-04 22:55:00
6:53 PM,48.0,45.0,89,30.05,3.0,Calm,Calm,-,N/A,,Clear,0,2012-12-04 23:53:00
7:53 PM,55.9,50.0,80,30.03,7.0,South,3.5,-,N/A,,Clear,180,2012-12-05 00:53:00
8:53 PM,52.0,48.9,89,30.02,5.0,SE,5.8,-,N/A,,Partly Cloudy,140,2012-12-05 01:53:00
9:53 PM,54.0,50.0,86,29.99,6.0,South,5.8,-,N/A,,Scattered Clouds,170,2012-12-05 02:53:00
10:53 PM,55.0,51.1,86,29.96,6.0,South,4.6,-,N/A,,Overcast,170,2012-12-05 03:53:00
11:53 PM,55.9,50.0,80,29.92,8.0,Variable,3.5,-,N/A,,Overcast,0,2012-12-05 04:53:00